Notices

What's New in latest Release from April 7th, 2021:

- Updated Glossary, including Speed of Maximum Gust, and Total Hourly Precipitation

- Updated national and regional climate services offices contacts and prices information

- Addition of station inventory lists for 1981-2010, 1971-2000, and 1961-1990 Normals.

If you haven't already, please take our survey and provide feedback about our website: https://eccc.sondage-survey.ca/f/LanguageSelection.aspx?s=442ca660-fcf1-47c0-95a9-59707d6fd709

Hourly Data Report for March 18, 2018

MIRAMICHI RCS
NEW BRUNSWICK

47°00'34.000" N
65°27'54.000" W
33.00 m
8100989
71744
ACQ

Download Data

Hourly Data (March 2018)
Hourly Data Report for March 18, 2018
TIME
LST
Temp Definition
°C
Dew Point Definition
°C
Rel Hum Definition
%
Precip. Amount Definition
mm

Wind Dir Definition
10's deg

Wind Spd Definition
km/h
Visibility Definition
km
Stn Press Definition
kPa
Hmdx Definition


Wind Chill Definition


Weather Definition


00:00 -8.3 -15.1 58 0.0 30 15   99.35   -15 LegendNANA
01:00 -8.4 -15.6 56 0.0 31 17   99.39   -15 LegendNANA
02:00 -9.0 -15.9 58 0.0 30 12   99.45   -15 LegendNANA
03:00 -9.6 -16.4 58 0.0 30 17   99.46   -17 LegendNANA
04:00 -10.6 -17.0 59 0.0 30 17   99.50   -18 LegendNANA
05:00 -11.4 -17.5 61 0.0 30 16   99.57   -19 LegendNANA
06:00 -12.1 -17.9 62 0.0 30 12   99.63   -18 LegendNANA
07:00 -12.7 -18.0 64 0.0 29 12   99.68   -19 LegendNANA
08:00 -12.1 -18.3 60 0.0 28 19   99.72   -20 LegendNANA
09:00 -11.2 -18.3 56 0.0 29 22   99.72   -20 LegendNANA
10:00 -9.7 -17.7 52 0.0 29 19   99.69   -17 LegendNANA
11:00 -8.5 -17.5 48 0.0 28 21   99.66   -16 LegendNANA
12:00 -7.6 -16.8 48 0.0 29 20   99.61   -15 LegendNANA
13:00 -6.7 -16.3 47 0.0 30 20   99.60   -14 LegendNANA
14:00 -5.8 -16.0 44 0.0 29 19   99.55   -12 LegendNANA
15:00 -5.6 -15.5 46 0.0 28 21   99.53   -12 LegendNANA
16:00 -5.2 -15.0 46 0.0 29 18   99.54   -11 LegendNANA
17:00 -5.5 -15.1 47 0.0 30 21   99.57   -12 LegendNANA
18:00 -5.9 -15.4 47 0.0 30 21   99.60   -13 LegendNANA
19:00 -7.4 -16.1 50 0.0 31 14   99.69   -13 LegendNANA
20:00 -8.6 -16.8 52 0.0 30 16   99.71   -15 LegendNANA
21:00 -9.6 -16.5 57 0.0 28 14   99.66   -16 LegendNANA
22:00 -10.2 -16.7 59 0.0 27 9   99.62   -15 LegendNANA
23:00 -10.3 -16.9 58 0.0 28 11   99.58   -16 LegendNANA

Notes on Data Quality.

Legend

  • E = Estimated
  • M = Missing
  • NA = Not Available*
  • [empty] = Indicates an unobserved value
Date modified: